SCP
2 2 2 1 1 1 1 1 1 0 0 0 0 0 0 0 0 0 0 0 0 0 0 0 0 0 0 0 0 0 0 0 0 0 0 0 0 0 0 0 0 0 0
2 2 2 1 1 1 1 1 1 1 0 0 0 0 0 0 0 0 0 0 0 0 0 0 0 0 0 0 0 0 0 0 0 0 0 0 0 0 0 0 0 0 0
2 2 2 1 1 1 1 1 1 1 0 0 0 0 0 0 0 0 0 0 0 0 0 0 0 0 0 0 0 0 0 0 0 0 0 0 0 0 0 0 0 0 0
1 2 2 1 1 1 1 1 1 1 0 0 0 0 0 0 0 0 0 0 0 0 0 0 0 0 0 0 0 0 0 0 0 0 0 0 0 0 0 0 0 0 0
1 1 1 1 1 1 1 1 1 1 1 1 0 0 0 0 0 0 0 0 0 0 0 0 0 0 0 0 0 0 0 0 0 0 0 0 0 0 0 0 0 0 0
1 1 2 1 1 1 1 1 1 1 1 1 1 1 1 0 0 0 0 0 0 0 0 0 0 0 0 0 0 0 0 0 0 0 0 0 0 0 0 0 0 0 0
1 2 2 1 1 1 1 1 2 2 1 1 1 1 1 0 0 0 0 0 0 0 0 0 0 0 0 0 0 0 0 0 0 0 0 0 0 0 0 0 0 0 0
1 1 1 1 1 1 1 2 2 2 1 1 1 1 1 1 1 1 0 0 0 0 0 0 0 0 0 0 0 0 0 0 0 0 0 0 0 0 0 0 0 0 0
1 1 1 1 1 1 1 2 2 2 2 1 1 1 1 1 1 1 1 1 1 1 1 1 1 0 0 0 0 0 0 0 0 0 0 0 0 0 0 0 0 0 0
1 1 1 1 1 1 1 2 2 2 2 1 1 1 1 1 1 1 1 1 1 1 1 1 1 1 0 0 0 0 0 0 0 0 0 0 0 0 0 0 0 0 0
1 1 1 1 1 1 2 2 2 2 2 1 1 1 1 1 1 1 1 1 1 1 1 1 1 1 0 0 0 0 0 0 0 0 0 0 0 0 0 0 0 0 0
1 1 1 1 1 1 1 2 2 2 2 2 2 1 1 1 1 1 1 1 1 1 1 1 1 1 0 0 0 0 0 0 0 0 0 0 0 0 0 0 0 0 0
1 1 1 1 1 1 2 2 2 2 2 2 2 2 2 1 1 1 1 1 1 1 1 1 1 0 0 0 0 0 0 0 0 0 0 0 0 0 0 0 0 0 0
2 2 2 2 2 2 2 2 2 2 2 2 2 2 2 2 1 1 1 1 1 1 1 1 0 0 0 0 0 0 0 0 0 0 0 0 0 0 0 0 0 0 0
2 2 2 2 2 2 2 2 2 2 2 2 2 2 2 2 1 1 1 1 1 1 1 1 0 0 0 0 0 0 0 0 0 0 0 0 0 0 0 0 0 0 0
2 2 2 2 2 2 2 2 2 2 2 2 2 2 2 1 1 1 1 1 1 1 1 1 1 0 0 0 0 0 0 0 0 0 0 0 0 0 0 0 0 0 0
2 2 2 2 2 2 2 2 2 2 2 2 2 2 1 1 1 1 1 1 1 1 1 1 0 0 0 0 0 0 0 0 0 0 0 0 0 0 0 0 0 0 0
2 2 3 3 3 2 2 2 2 2 2 2 2 2 1 1 1 1 1 1 1 1 1 1 0 0 0 0 0 0 0 0 0 0 0 0 0 0 0 0 0 0 0
3 3 3 3 3 3 2 2 2 2 2 2 2 2 1 1 1 1 1 1 1 1 1 1 1 0 0 0 0 0 0 0 0 0 0 0 0 0 0 0 0 0 0
3 3 3 3 3 3 3 3 2 2 2 2 2 2 1 1 1 1 1 1 1 1 1 1 1 0 0 0 0 0 0 0 0 0 0 0 0 0 0 0 0 0 0
3 3 4 4 4 4 3 3 3 2 2 2 2 2 1 1 1 1 1 1 1 1 1 1 1 0 0 0 0 0 0 0 0 0 0 0 0 0 0 0 0 0 0
3 3 4 4 4 3 3 3 3 2 2 2 1 1 1 1 1 1 1 1 1 1 1 1 1 0 0 0 0 0 0 0 0 0 0 0 0 0 0 0 0 0 0
3 3 3 3 3 3 3 3 2 2 2 1 1 1 1 1 1 1 1 1 1 1 1 1 1 0 0 0 0 0 0 0 0 0 0 0 0 0 0 0 0 0 0
3 3 3 3 3 3 2 2 2 2 1 1 1 1 1 1 1 1 1 1 1 1 1 1 1 1 0 0 0 0 0 0 0 0 0 0 0 0 0 0 0 0 0
3 3 3 3 2 2 2 2 2 1 1 1 1 1 1 1 1 1 1 1 1 1 1 1 1 0 0 0 0 0 0 0 0 0 0 0 0 0 0 0 0 0 0
3 3 3 2 2 2 2 2 1 1 1 1 1 1 1 1 1 1 1 1 0 0 0 0 0 0 0 0 0 0 0 0 0 -0 0 0 0 0 0 0 0 0 0
Wind_Speed
11 10 9 9 8 7 5 5 4 3 2 2 2 2 2 2 2 2 3 3 2 1 1 1 1 1 1 1 2 2 2 2 2 1 1 2 2 2 2 2 2 3 4
11 10 9 9 9 8 6 5 4 4 3 2 1 1 1 1 2 1 1 2 2 2 2 2 1 1 1 1 2 1 1 2 2 1 1 1 1 1 3 2 2 2 2
13 12 10 9 8 8 7 5 4 4 3 3 2 1 1 0 0 1 1 1 2 2 1 1 2 2 1 1 2 2 3 2 2 2 1 1 1 1 1 1 1 1 1
13 12 11 9 8 8 8 6 5 4 3 2 2 2 1 1 0 1 1 1 1 2 2 2 2 2 1 2 3 2 2 2 2 2 1 2 2 2 1 1 0 1 1
13 12 11 9 9 8 8 7 6 5 3 2 2 1 0 0 0 1 1 1 1 1 2 2 2 2 2 2 2 2 2 2 2 2 1 2 1 2 2 2 1 0 0
13 12 12 10 8 8 8 8 6 5 4 3 2 1 0 1 1 1 0 0 0 0 1 1 1 1 1 2 2 2 2 2 2 2 1 1 1 2 2 2 2 1 1
13 13 12 11 9 8 8 8 7 6 4 4 2 1 1 0 1 1 0 1 0 1 1 0 0 1 1 1 2 1 2 2 2 2 2 2 2 1 1 1 1 1 1
12 13 12 11 10 9 8 8 8 6 5 4 3 2 1 1 0 0 1 1 1 1 1 1 1 1 1 1 1 1 1 1 2 2 2 2 2 1 1 1 1 1 1
13 13 13 12 11 9 8 9 8 7 5 5 4 3 2 1 1 1 1 1 1 1 2 2 1 1 2 2 1 1 1 1 1 1 2 2 1 1 1 1 1 2 2
12 12 12 12 11 10 9 9 8 7 5 5 3 4 3 2 1 1 1 2 2 2 2 2 2 2 2 2 1 1 1 1 1 1 2 2 2 1 1 0 1 1 1
11 11 10 11 11 11 11 9 8 8 6 5 4 3 3 3 2 1 1 2 2 2 2 2 3 3 3 3 2 2 2 2 3 2 2 2 2 2 1 1 1 1 1
11 10 11 10 10 10 10 9 9 8 7 6 5 4 3 2 2 2 2 2 2 2 2 2 3 3 3 3 3 3 3 3 3 3 3 3 3 3 2 2 1 1 1
11 10 10 10 9 8 8 8 7 8 8 7 6 5 4 3 2 2 2 2 2 2 2 3 3 3 3 3 3 4 4 4 4 4 4 4 4 4 3 2 2 1 1
10 10 9 8 7 7 7 6 6 6 7 7 6 5 4 4 3 3 3 3 3 3 3 3 3 3 4 4 4 4 4 4 5 5 5 5 5 5 4 4 3 2 2
10 9 8 7 7 7 7 6 6 5 6 6 6 5 5 4 4 3 3 3 3 3 3 4 4 4 4 5 5 4 5 4 5 5 6 7 9 10 7 5 4 4 3
10 9 8 8 7 6 6 7 6 6 6 5 5 5 5 5 4 4 4 4 4 4 4 4 5 6 5 8 8 5 4 4 4 4 4 5 7 9 9 10 9 7 4
9 9 9 8 7 6 6 7 7 7 6 5 5 5 5 5 4 5 5 4 4 4 5 5 6 6 7 9 9 8 4 5 5 5 4 5 6 5 4 6 7 8 8
8 8 8 8 8 7 6 6 7 7 6 6 5 5 5 5 5 5 5 5 4 4 4 5 5 5 6 8 8 7 4 4 4 4 5 5 5 6 5 4 6 6 5
6 7 8 8 8 7 7 6 6 6 6 6 5 5 5 5 5 5 5 4 4 4 4 4 4 5 5 7 7 5 2 3 4 5 6 5 5 7 7 4 4 4 3
6 6 7 8 8 7 7 6 6 6 6 6 5 5 5 5 5 5 5 4 4 4 4 4 4 5 5 6 7 6 2 3 3 4 5 8 7 7 7 3 3 3 2
7 7 7 7 7 6 7 6 6 5 5 6 6 6 6 5 5 5 4 4 4 4 4 4 4 4 5 6 7 7 3 2 2 3 3 4 6 6 6 4 2 2 1
7 7 7 7 6 6 6 6 5 5 5 6 6 6 5 5 5 5 4 4 4 4 4 3 4 4 4 5 5 6 6 4 3 3 3 3 4 4 5 4 4 4 3
7 7 7 7 6 5 5 5 5 5 6 6 5 5 5 4 5 5 4 4 3 3 3 3 3 3 3 4 5 5 5 6 3 3 3 3 1 1 1 2 3 2 1
6 6 7 7 6 5 5 5 5 5 5 5 5 4 4 4 4 3 2 2 2 2 2 3 3 3 3 3 2 1 2 3 2 2 2 2 1 1 1 1 1 1 1
5 6 6 6 6 6 5 5 5 5 5 5 4 4 4 4 4 4 3 2 3 2 1 1 2 3 3 2 1 1 1 0 1 0 1 1 1 1 1 1 1 1 1
4 5 5 6 6 6 5 5 5 5 5 5 4 4 4 4 5 5 5 9 6 7 7 6 4 4 5 6 4 3 3 3 2 0 1 1 1 1 1 1 1 1 1
Wind_Direction
154 148 150 150 149 146 150 154 154 149 160 172 186 192 199 213 216 210 189 198 218 228 236 290 267 272 265 252 248 229 235 240 225 246 291 277 242 199 186 199 198 192 185
152 154 155 158 158 154 159 157 160 163 178 174 186 194 192 204 194 215 161 196 203 211 227 228 248 252 259 259 265 245 245 264 238 206 204 271 296 278 230 185 192 202 168
157 158 162 164 161 156 158 152 153 152 165 166 181 191 158 235 140 177 185 213 208 203 238 236 256 265 251 243 254 246 236 243 265 243 187 189 213 307 291 216 206 173 160
157 158 160 163 157 153 149 138 142 141 151 165 195 204 177 182 197 189 161 205 219 216 225 229 240 258 262 251 255 226 237 236 250 259 230 217 180 168 266 307 260 189 168
152 153 154 153 153 155 149 144 140 143 147 155 163 190 234 181 176 122 127 220 216 219 225 229 239 249 258 259 266 280 261 250 252 260 245 235 226 195 195 224 243 7 43
144 145 146 144 150 153 148 143 139 139 145 155 155 152 255 24 30 32 62 259 197 224 226 222 231 245 255 268 264 262 259 260 264 276 276 257 241 223 212 208 200 199 263
143 145 146 149 155 154 147 140 139 142 146 149 151 151 158 114 24 337 319 332 20 47 14 0 277 280 269 269 271 266 261 265 263 269 277 275 268 265 215 184 188 196 253
145 146 148 152 156 154 149 141 140 143 149 151 151 136 133 181 207 285 350 16 15 46 14 18 12 329 306 300 296 304 275 277 275 273 278 279 284 287 259 193 180 201 245
147 150 154 157 156 154 148 142 139 142 147 149 144 135 130 108 46 75 40 34 20 23 39 33 24 4 355 345 18 5 343 2 330 318 320 303 302 302 296 237 199 188 210
150 153 156 155 152 150 143 140 139 144 147 150 157 149 144 142 118 70 57 43 41 31 39 27 29 29 17 11 23 27 6 15 8 357 349 334 329 327 323 264 252 214 198
148 148 148 145 147 149 150 150 147 149 151 149 141 133 140 150 142 113 84 66 55 50 34 23 24 35 35 26 30 34 28 30 24 11 9 349 347 343 340 346 6 54 111
143 146 145 143 148 153 153 152 154 155 156 150 142 142 138 131 124 108 85 78 80 72 54 48 38 36 48 46 47 40 39 37 30 21 16 3 2 9 11 9 23 47 122
140 140 141 145 149 146 143 148 156 156 156 153 149 148 145 134 117 99 88 82 81 77 66 62 57 44 48 52 58 57 47 43 38 33 28 21 19 14 11 22 22 27 85
134 134 135 139 140 136 139 146 149 148 149 148 148 146 143 137 127 116 105 92 86 78 70 65 63 60 56 46 53 66 63 58 54 48 42 35 36 29 21 34 28 47 74
138 137 140 140 139 141 146 146 140 135 133 139 145 145 139 132 122 113 106 96 85 81 74 68 64 60 60 43 45 58 66 61 59 57 59 60 65 60 52 54 42 44 66
152 150 148 145 146 148 153 146 142 134 132 138 136 130 129 128 123 116 105 94 85 79 79 75 71 64 57 44 44 48 61 60 61 63 65 75 70 71 70 69 61 55 62
158 154 154 152 151 153 149 146 143 137 136 131 125 127 129 127 126 122 115 106 96 89 85 81 81 75 55 43 39 41 51 61 54 50 44 51 57 52 62 75 71 62 57
155 155 157 153 148 145 140 137 141 140 139 133 129 129 132 129 120 111 109 105 102 98 90 85 85 84 63 44 40 38 62 70 64 57 52 56 49 38 36 62 70 65 53
144 150 152 149 143 143 138 139 139 138 139 139 137 133 134 131 129 124 118 114 110 104 98 92 89 85 68 42 39 27 73 82 72 68 58 53 52 34 34 62 76 78 82
125 133 138 137 135 137 137 139 138 136 140 139 133 128 126 130 131 127 121 115 115 114 107 98 95 93 81 51 41 27 61 94 92 87 75 61 53 42 34 50 70 63 42
112 115 117 121 123 128 131 135 134 134 133 131 128 124 122 123 124 121 122 126 125 120 114 108 100 93 86 74 50 39 37 47 75 91 83 64 47 42 32 28 43 32 340
119 119 114 114 119 126 132 133 128 124 123 124 127 127 129 134 132 129 130 137 139 136 132 130 123 105 95 79 66 55 46 37 59 72 84 85 62 44 27 21 10 357 346
119 121 122 120 119 120 125 130 120 122 127 128 130 130 129 123 131 141 149 157 161 161 152 149 137 123 117 102 84 74 60 55 63 75 93 112 121 53 22 18 358 352 2
111 117 122 122 121 121 117 114 119 125 132 135 137 135 136 131 122 125 137 148 154 161 150 144 144 134 127 116 114 135 125 110 113 123 134 161 200 281 342 356 352 7 20
106 114 121 127 130 128 122 124 129 135 140 143 144 143 145 143 128 105 63 81 70 69 114 117 122 131 133 120 130 132 101 56 55 117 175 176 173 182 177 153 133 64 51
109 121 128 130 134 134 130 131 138 143 149 154 160 164 164 154 147 136 105 56 69 78 77 77 89 96 112 124 102 77 56 45 50 26 212 180 173 168 148 140 140 115 73